www.pogodaiklimat.ru

Погода и климат >> Архив погоды >> Россия >> Ставропольский край >> Светлоград


ПОГОДА в Светлограде

  • Прогноз погоды в Светлограде
  • Монитор погоды в Светлограде

АРХИВ ПОГОДЫ в Светлограде

Время (UTC), дата Ветер
(напр.,м/с)
 
Видим.   Явления Облачность Т
(С)
Тd
(С)
f
(%)
Тe
(С)
Тes
(С)
Комфортность P
(гПа)
Po
(гПа)
Тmin
(С)
Tmax
(С)
R
(мм)
R24
(мм)
S
(см)
00 18.08 штиль 0 20 км 3/3 600 м
[Sc]
+19.3 +16.7 85 +21 +21 комфорт 1008.9 992.6
03 18.08 СЗ 1 20 км 8/0
[Ci fib]
+19.1 +16.2 83 +22 +22 комфорт 1009.2 992.8 +18.5
06 18.08 З 1 20 км 10/10 1000 м
[Sc]
+24.7 +17.3 63 +29 +29 душно 1008.6 992.5
09 18.08 З 2 20 км 8/6 600 м
[Sc diur, vesp Ci fib]
+31.8 +15.1 36 +34 +39 душно 1007.5 991.9
12 18.08 С 2 20 км 6/6 1000 м
[Cu hum]
+34.6 +12.5 26 +35 +38 очень
жарко
1006.8 991.3
15 18.08 СЗ 3 20 км 3/3 1000 м
[Cu hum]
+33.3 +12.3 28 +34 +34 очень
жарко
1007.0 991.4 +35.4
18 18.08 З 2 20 км ясно +26.1 +13.9 47 +28 +28 жарко 1010.0 994.0
21 18.08 Ю 1 20 км 8/8 600 м
[Sc]
+23.4 +14.9 59 +27 +27 душно 1010.9 994.7
00 19.08 штиль 0 20 км ясно +21.1 +16.8 76 +25 +25 комфорт 1011.4 995.2
03 19.08 ЮЗ 2 20 км 3/3 1000 м
[Cu hum Ci fib]
+21.5 +18.2 81 +26 +26 душно 1013.0 996.7 +20.1
06 19.08 З 2 20 км 8/5 1000 м
[Cu med, cong Ci fib]
+27.0 +17.3 55 +31 +35 душно 1013.3 997.3
09 19.08 З 4 20 км 6/3 1000 м
[Cu med, cong Ci]
+32.6 +14.1 33 +34 +41 очень
жарко
1013.4 997.7
12 19.08 С 2 20 км 4/3 1000 м
[Cu med, cong Ci fib]
+34.1 +13.1 28 +35 +41 очень
жарко
1013.0 997.3
15 19.08 С 2 20 км ясно +33.3 +11.6 27 +33 +34 жарко 1013.3 997.6 +35.1
18 19.08 штиль 0 20 км ясно +25.2 +12.6 45 +27 +27 жарко 1015.1 998.9
21 19.08 Ю 1 20 км 3/0
[Ci fib]
+22.0 +12.8 56 +25 +25 комфорт 1015.6 999.3
00 20.08 штиль 0 20 км 8/0
[Ci]
+21.6 +12.7 57 +24 +24 комфорт 1015.4 999.1
03 20.08 С 1 20 км 8/5 1000 м
[Cu Sc Ci fib]
+20.3 +13.8 66 +24 +24 комфорт 1016.3 999.9 +19.9
06 20.08 ЮЗ 1 20 км 8/0
[Ci fib]
+27.9 +14.1 43 +30 +38 жарко 1015.8 999.8
09 20.08 СЗ 2 20 км 10/0
[Ci fib]
+33.4 +12.7 29 +34 +46 очень
жарко
1014.9 999.2
12 20.08 СЗ 1 20 км 10/0
[Ci fib]
+35.7 +12.4 25 +36 +44 очень
жарко
1013.6 998.0
15 20.08 С 1 20 км 3/0
[Ci fib]
+35.3 +12.6 25 +35 +36 очень
жарко
1013.3 997.7 +36.8
18 20.08 Ю 1 20 км ясно +26.6 +12.4 41 +28 +28 жарко 1014.2 998.1
21 20.08 В 1 20 км ясно +28.4 +8.5 29 +28 +28 жарко 1014.6 998.6
00 21.08 В 2 20 км ясно +24.6 +10.3 40 +26 +26 жарко 1014.2 998.1
03 21.08 штиль 0 20 км 3/1 1000 м
[Cu hum Cc]
+21.1 +11.9 56 +23 +23 комфорт 1015.1 998.7 +20.8
06 21.08 В 3 20 км 1/0
[Ci fib]
+29.9 +9.0 27 +29 +36 жарко 1014.8 998.9
09 21.08 В 3 20 км 1/0
[Ci fib]
+35.9 +2.9 13 +33 +45 жарко 1013.1 997.5
12 21.08 В 3 20 км 1/0
[Ci fib]
+37.3 +6.3 15 +35 +42 очень
жарко
1011.3 995.8
15 21.08 В 2 20 км 1/0
[Ci fib]
+36.0 +1.3 11 +32 +33 жарко 1010.8 995.2 +37.5
18 21.08 В 2 20 км ясно +27.8 +0.6 17 +26 +26 жарко 1011.9 995.9
21 21.08 В 1 20 км ясно +25.8 +5.6 27 +25 +25 комфорт 1012.0 995.9
00 22.08 В 1 20 км ясно +22.2 +5.8 34 +23 +23 комфорт 1012.0 995.7
03 22.08 штиль 0 20 км ясно +17.1 +5.0 45 +17 +17 1013.4 996.8 +17.1
06 22.08 В 2 20 км ясно +28.4 +7.2 26 +28 +36 жарко 1012.8 996.8
09 22.08 СВ 3 20 км ясно +35.9 +3.2 13 +33 +45 жарко 1011.2 995.6
12 22.08 СВ 4
{10}
20 км 3/0
[Ci fib]
+37.3 +1.2 10 +34 +39 очень
жарко
1010.4 994.9
15 22.08 В 2 20 км 4/0
[Ci fib]
+36.1 -0.2 10 +32 +33 жарко 1010.3 994.7 +37.9
18 22.08 В 1 20 км ясно +26.1 +3.1 23 +25 +25 комфорт 1010.3 994.7
21 22.08 ЮВ 1 20 км ясно +21.7 +5.7 35 +22 +22 комфорт 1012.4 996.1
00 23.08 штиль 0 20 км ясно +21.7 +5.7 35 +22 +22 комфорт 1012.4 996.2
03 23.08 штиль 0 20 км 8/4 600 м
[Sc Ci fib]
+16.5 +7.3 54 +16 +17 1013.8 997.2 +15.9
06 23.08 штиль 0 20 км 9/8 600 м
[Cu Sc Ci fib]
+24.7 +7.3 33 +25 +27 комфорт 1013.0 996.8
09 23.08 СВ 3 20 км 8/6 600 м
[Cu med, cong Ci fib]
+34.5 +6.8 18 +32 +37 жарко 1011.8 996.1
12 23.08 В 4-11
{11}
20 км 6/4 600 м
[Cu med, cong Ci fib]
+37.6 +3.4 12 +34 +38 очень
жарко
1010.0 994.6
15 23.08 СВ 2
{11}
20 км 4/0
[Ci fib]
+35.6 +5.8 16 +33 +34 жарко 1010.5 994.9 +38.7
18 23.08 В 1 20 км 3/0
[Ci fib]
+27.3 +7.5 29 +27 +27 жарко 1012.3 996.3
21 23.08 В 1 20 км ясно +22.5 +7.4 38 +23 +23 комфорт 1012.2 995.9
00 24.08 штиль 0 20 км 3/0
[Ci fib]
+20.0 +7.6 45 +21 +21 комфорт 1012.8 996.4
03 24.08 ЮВ 2 20 км 6/3 1000 м
[Sc Ci fib]
+20.8 +8.9 46 +23 +23 комфорт 1013.1 996.8 +19.0
06 24.08 СВ 2 20 км 8/3 600 м
[Sc Ci fib]
+28.9 +12.9 37 +30 +35 жарко 1012.6 996.7
09 24.08 СВ 3 20 км 10/3 1000 м
[Sc Ci fib]
+33.9 +10.7 24 +33 +40 жарко 1010.8 995.2
12 24.08 В 1
{10}
20 км 10/4 1000 м
[Sc Ci fib]
+32.3 +14.5 34 +34 +39 душно 1011.0 995.3
15 24.08 штиль 0 20 км 10/10 1000 м
[Sc]
+31.7 +16.9 41 +35 +35 очень
душно
1011.0 995.3 +34.2
18 24.08 В 1 20 км 10/10 600 м
[Sc]
+26.4 +16.5 55 +30 +30 душно 1012.0 996.0
21 24.08 Ю 3 20 км 10/10 600 м
[Sc]
+27.3 +13.8 43 +29 +29 жарко 1012.0 996.1

 

Местоположение метеостанции Светлоград (Ставропольский край, Россия): широта 45.35 долгота 42.85 высота над уровнем моря 141 м.

В архиве по умолчанию представлена погода в Светлограде за последнюю неделю. Архивные данные за месяц целиком и за предыдущие месяцы, начиная с января 2011 года, Вы можете получить, выбрав интересующий диапазон дат из раскрывающегося списка и нажав кнопку "Ввод!".


*Определитесь, кто Вы:
робот инопланетянин человек

Внимание! Время в таблицах - всемирное. Для получения местного времени необходимо прибавить поправку, которая равна 3 ч.

Смотрите также архив погоды в соседних городах и на ближайших метеорологических станциях:

Погода в Благодарном (Ставропольский край, Россия) (55 км)
Погода в Ставрополе (Ставропольский край, Россия) (66 км)
Погода в Александровском (Ставропольский край, Россия) (71 км)
Погода в Дивном (Ставропольский край, Россия) (74 км)
Погода в Изобильном (Ставропольский край, Россия) (90 км)
Погода в Городовиковске (Калмыкия, Россия) (105 км)
Погода в Арзгире (Ставропольский край, Россия) (106 км)
Погода в Невинномысске (Ставропольский край, Россия) (106 км)
Погода в Буденновске (Ставропольский край, Россия) (119 км)
Погода в Красногвардейском (Ставропольский край, Россия) (119 км)

Пояснения к столбцам:

Ветер - указаны скорость ветра в м/с - средняя за 10 мин, порывы в срок и между сроками (в фигурных скобках) и направление, откуда дует ветер: С - северный, СВ - северо-восточный, В - восточный, ЮВ - юго-восточный, Ю - южный, ЮЗ - юго-западный, З - западный, СЗ - северо-западный.
Видимость - горизонтальная дальность видимости в метрах или километрах. При видимости от 1 до 10 км при отсутствии осадков обычно наблюдается дымка, при ухудшении видимости до 1 км и менее - туман. В сухую погоду видимость может ухудшаться дымом, пылью или мглою.
Явления - указаны атмосферные явления, наблюдавшиеся в срок или в последний час перед сроком; фигурными скобками обозначены явления, наблюдавшиеся между сроками (за 1-3 часа до срока); квадратными скобками обозначены град или гололедные отложения с указанием их диаметра в мм.
Облачность - указаны через наклонную черту общая и нижняя облачность в баллах и высота нижней границы облаков в метрах; квадратными скобками обозначены формы облаков: Ci - перистые, Cs - перисто-слоистые, Cc - перисто-кучевые, Ac - высококучевые, As - высокослоистые, Sc - слоисто-кучевые, Ns - слоисто-дождевые, Cu - кучевые, Cb - кучево-дождевые. Подробнее классификацию облаков см. в Атласе облаков (PDF).
T - Температура воздуха - температура, измеренная на высоте 2 м над землей.
Td - Температура точки росы - температура, при понижении до которой содержащийся в воздухе водяной пар достигнет насыщения.
f - Относительная влажность воздуха - влажноcть воздуха, измеренная на высоте 2 м над землей.
Te - Эффективная температура - температура, которую ощущает одетый по сезону человек в тени. Характеристика душности погоды. При расчете учитывается влияние влажности воздуха и скорости ветра на теплоощущения человека.
Tes - Эффективная температура на солнце - температура, которую ощущает человек, с поправкой на солнечный нагрев. Характеристика знойности погоды. Зависит от высоты солнца над горизонтом, облачности и скорости ветра. Ночью, в пасмурную погоду, а также при ветре 12 м/с и более поправка равна нулю.
P - Атмосферное давление - приведенное к уровню моря атмосферное давление.
Po - Атмосферное давление - измеренное на уровне метеостанции атмосферное давление.
Tmin - Минимальная температура - минимум температуры воздуха на высоте 2 м над землей.
Tmax - Максимальная температура - максимум температуры воздуха на высоте 2 м над землей.
R - Количество осадков - Количество выпавших осадков за период времени, мм. При наведении курсора мыши на число - период времени, за который выпало указанное количество осадков.
R24 - Количество осадков - Количество выпавших осадков за 24 часа, мм.
S - Снежный покров - Высота снежного покрова, см. При наведении курсора мыши на число - состояние снежного покрова и степень покрытия местности в баллах.